Location: IoMAS Observatory
(54.1780°N, 4.6265°W)
Time: 05:43:49
(UTC+02:00)

ISS - Visible Passes

Search period start: 02 October 2022 00:00
Search period end: 12 October 2022 00:00
Orbit: 415 x 420 km, 51.6° (Epoch: 02 October)

Date Brightness Start Highest point End Pass type
(mag) Time Alt. Az. Time Alt. Az. Time Alt. Az.
02 Oct -1.2 21:18:08 10° WSW 21:20:17 16° SW 21:22:25 10° S visible
03 Oct -1.5 20:29:39 10° W 20:32:18 21° SSW 20:34:56 10° SSE visible
05 Oct -0.8 20:30:44 10° WSW 20:32:02 12° SW 20:33:20 10° SSW visible
